Вернуться в каталог

COSMOS 2251 DEB

АктивенLEO
NORAD 35975·DEBRIS·🇷🇺 Russia

Запущен Jun 16, 1993 с Plesetsk Cosmodrome

Loading…

Ближайшие Пролёты (ближайшие 24 часа)

TLE

УстаревшееSource: Space-Track

Эпоха: Sep 7, 2026, 13:07 UTC

1 35975U 93036AVR 26250.54720127  .00001621  00000-0  61600-3 0  9999
2 35975  74.0486 203.0860 0112993 218.7913 140.5087 14.28346993679382

Отслеживайте COSMOS 2251 DEB в реальном времени с AllMySat

Download on the App Store